This is the latest recevied weather packets stored in our database for station/object KQ7A. If no packets are shown the sender has not sent any weather packets the latest 10 day(s).
| Time | Temp. | Humidity | Pressure | Rain* | Wind** | Luminosity | Snow |
|---|---|---|---|---|---|---|---|
| 1777946342 | 9.44° C | 78% | 1012.6 hPa | 0 mm | - | 10 W/m² | - |
| 1777946039 | 9.44° C | 76% | 1012.8 hPa | 0 mm | - | 14 W/m² | - |
| 1777945736 | 9.44° C | 75% | 1012.5 hPa | 0 mm | - | 15 W/m² | - |
| 1777945433 | 9.44° C | 83% | 1012.6 hPa | 0 mm | - | 14 W/m² | - |
| 1777945130 | 9.44° C | 83% | 1012.4 hPa | 0 mm | - | 16 W/m² | - |
| 1777944827 | 9.44° C | 78% | 1012.5 hPa | 0 mm | - | 17 W/m² | - |
| 1777944525 | 9.44° C | 77% | 1012.6 hPa | 0 mm | - | 19 W/m² | - |
| 1777944223 | 10° C | 77% | 1012.5 hPa | 0 mm | - | 20 W/m² | - |
| 1777943919 | 10° C | 75% | 1013 hPa | 0 mm | - | 19 W/m² | - |
| 1777943616 | 10° C | 74% | 1012.9 hPa | 0 mm | - | 16 W/m² | - |
| 1777943312 | 10° C | 73% | 1012.6 hPa | 0 mm | - | 12 W/m² | - |
| 1777943007 | 10° C | 74% | 1012.4 hPa | 0 mm | - | 15 W/m² | - |
| 1777942704 | 10.56° C | 76% | 1012.4 hPa | 0 mm | - | 15 W/m² | - |
| 1777942401 | 10.56° C | 75% | 1012.1 hPa | 0 mm | - | 30 W/m² | - |
| 1777942099 | 10.56° C | 74% | 1012.1 hPa | 0 mm | - | 55 W/m² | - |
| 1777941795 | 10.56° C | 76% | 1012 hPa | 0 mm | - | 73 W/m² | - |
| 1777941492 | 10.56° C | 76% | 1012 hPa | 0 mm | - | 80 W/m² | - |
| 1777941189 | 11.11° C | 79% | 1011.7 hPa | 0 mm | - | 86 W/m² | - |
| 1777940885 | 11.11° C | 75% | 1012.3 hPa | 1.27 mm | - | 86 W/m² | - |
| 1777940583 | 11.67° C | 68% | 1012.1 hPa | 1.27 mm | - | 94 W/m² | - |
| 1777940281 | 11.67° C | 68% | 1012.2 hPa | 0 mm | - | 98 W/m² | - |
| 1777939978 | 11.67° C | 68% | 1012 hPa | 0 mm | - | 124 W/m² | - |
| 1777939675 | 12.22° C | 67% | 1011.8 hPa | 0 mm | - | 76 W/m² | - |
| 1777939372 | 12.22° C | 63% | 1012.1 hPa | 0 mm | - | 52 W/m² | - |
| 1777939069 | 12.22° C | 66% | 1011.7 hPa | 0 mm | - | 56 W/m² | - |
* Rain latest hour (hover to see other rain measurements)
** Current wind speed in m/s (hover to see current wind gust speed)